Вернуться в каталог

SCOUT B-1 DEB

АктивенLEO
NORAD 8868·DEBRIS·🇺🇸 United States

Запущен May 22, 1976 с Vandenberg Space Force Base

Loading…

Ближайшие Пролёты (ближайшие 24 часа)

TLE

СвежийSource: Space-Track

Эпоха: Sep 14, 2026, 09:04 UTC

1 08868U 76047D   26257.37804744  .00000130  00000-0  16721-3 0  9997
2 08868 100.0790  46.8845 0050113  43.7337 345.5614 13.81727603529867

Отслеживайте SCOUT B-1 DEB в реальном времени с AllMySat

Download on the App Store